Regional Weather Roundup
Issued by NWS

Home | Current Version | Previous Version | Graphics & Text | Print | Product List | Glossary On
Versions: 1 2 3 4 5 6 7 8 9 10 11 12 13 14 15 16 17 18 19 20 21 22 23 24 25 26 27 28 29 30 31 32 33 34 35 36 37 38 39 40 41 42 43 44 45 46 47 48 49 50
000
ASUS43 KFSD 021102
RWRSD

WEATHER ROUNDUP FOR SOUTH DAKOTA
NATIONAL WEATHER SERVICE SIOUX FALLS SD
600 AM CDT SUN AUG 02 2015

NOTE: "FAIR" INDICATES FEW OR NO CLOUDS BELOW 12,000 FEET WITH NO
SIGNIFICANT WEATHER AND/OR OBSTRUCTIONS TO VISIBILITY.


SDZ001>005-009-010-012>017-021200-
NORTHWEST AND NORTH CENTRAL SOUTH DAKOTA

CITY           SKY/WX    TMP DP  RH WIND       PRES   REMARKS
BUFFALO          N/A     61  50  67 N9        29.90R
FAITH            N/A     60  47  61 N10       29.88R
MOBRIDGE       CLEAR     68  57  68 N16G25    29.78R
$$

SDZ012>016-024>037-041>051-057-063-072>074-021200-
SOUTHWEST AND SOUTH CENTRAL SOUTH DAKOTA

CITY           SKY/WX    TMP DP  RH WIND       PRES   REMARKS
RAPID CTY ARPT CLEAR     68  55  63 NW9       29.91R
PIERRE         CLEAR     72  61  68 W12       29.77F
CUSTER         CLEAR     62  51  67 NW3       30.09S
PHILIP         CLEAR     68  60  75 NW9       29.83R
PINE RIDGE     CLEAR     58  55  90 CALM      29.93S
WINNER         FAIR      69  56  62 CALM      29.81R
$$

SDZ004>011-016>023-039-040-021200-
NORTHEAST SOUTH DAKOTA

CITY           SKY/WX    TMP DP  RH WIND       PRES   REMARKS
ABERDEEN       CLEAR     68  53  58 NW13      29.69S
WATERTOWN      CLEAR     65  60  84 SW7       29.72F
BROOKINGS      CLEAR     63  57  82 S5        29.77S
SISSETON         N/A     73  56  54 NW12G22   29.63R
$$

SDZ017-020-022-023-036>040-048>070-021200-
SOUTHEAST SOUTH DAKOTA

CITY           SKY/WX    TMP DP  RH WIND       PRES   REMARKS
SIOUX FALLS    PTCLDY    64  60  87 SW6       29.76S
HURON          CLEAR     61  59  93 E3        29.75R
CHAMBERLAIN    CLEAR     65  60  82 W3        29.78F
MITCHELL       CLEAR     65  60  84 W5        29.76S
YANKTON        CLEAR     70  63  78 SW5       29.76S
$$

ABBREVIATIONS USED IN REMARKS
   TC - TEMPERATURE IN CELSIUS
  WCI - WIND CHILL INDEX
   HX - HEAT INDEX
  VSB - VISIBILITY




USA.gov is the U.S. government's official web portal to all federal, state and local government web resources and services.